timestamp,surface_pressure_avg,surface_temp_avg,battery_voltage,lat,long
2020-08-21 00:09:01+00:00,372.6445,18.7,12.97,47.84626,-54.09684
2020-08-21 00:19:01+00:00,374.7496,18.7,12.81,47.84626,-54.09684
2020-08-21 00:29:01+00:00,376.5596,18.7,12.81,47.84626,-54.09684
2020-08-21 00:39:01+00:00,379.80300000000005,18.7,12.81,47.84626,-54.09684
2020-08-21 00:49:01+00:00,384.298,18.7,12.81,47.84626,-54.09684
2020-08-21 00:59:01+00:00,385.4846,18.7,12.81,47.84626,-54.09684
2020-08-21 01:09:01+00:00,384.4062,18.7,12.81,47.84626,-54.09684
2020-08-21 01:19:01+00:00,386.8029,18.7,12.73,47.84626,-54.09684
2020-08-21 01:29:01+00:00,387.6462,18.7,12.73,47.84626,-54.09684
2020-08-21 01:39:01+00:00,386.213,18.7,12.73,47.84626,-54.09684
2020-08-21 01:49:01+00:00,382.0279,18.7,12.73,47.84626,-54.09684
2020-08-21 01:59:01+00:00,377.4847,18.7,12.73,47.84626,-54.09684
2020-08-21 02:09:01+00:00,374.4128,18.7,12.73,47.84626,-54.09684
2020-08-21 02:19:01+00:00,368.4229,18.7,12.73,47.84626,-54.09684
2020-08-21 02:29:01+00:00,361.7095,18.7,12.73,47.84626,-54.09684
2020-08-21 02:39:01+00:00,360.3312,18.7,12.73,47.84626,-54.09684
2020-08-21 02:49:01+00:00,359.673,18.7,12.73,47.84626,-54.09684
2020-08-21 02:59:01+00:00,353.4528,18.7,12.73,47.84626,-54.09684
2020-08-21 03:09:01+00:00,345.2396,18.7,12.73,47.84626,-54.09684
2020-08-21 03:19:01+00:00,338.4746,18.7,12.73,47.84626,-54.09684
2020-08-21 03:29:01+00:00,328.3963,18.7,12.73,47.84626,-54.09684
2020-08-21 03:39:01+00:00,316.9597,18.69,12.73,47.84626,-54.09684
2020-08-21 03:49:01+00:00,305.7663,18.69,12.73,47.84626,-54.09684
2020-08-21 03:59:01+00:00,296.7363,18.68,12.73,47.84626,-54.09684
2020-08-21 04:09:01+00:00,284.3364,18.68,12.73,47.84626,-54.09684
2020-08-21 04:19:01+00:00,271.0764,18.67,12.73,47.84626,-54.09684
2020-08-21 04:29:01+00:00,259.3315,18.66,12.73,47.84626,-54.09684
2020-08-21 04:39:01+00:00,250.4964,18.65,12.73,47.84626,-54.09684
2020-08-21 04:49:01+00:00,241.1547,18.62,12.73,47.84626,-54.09684
2020-08-21 04:59:01+00:00,232.2248,18.6,12.73,47.84626,-54.09684
2020-08-21 05:09:01+00:00,223.7348,18.62,12.73,47.84626,-54.09684
2020-08-21 05:19:01+00:00,213.6414,18.66,12.73,47.84626,-54.09684
2020-08-21 05:29:01+00:00,203.7031,18.67,12.73,47.84626,-54.09684
2020-08-21 05:39:01+00:00,195.0581,18.67,12.73,47.84626,-54.09684
2020-08-21 05:49:01+00:00,186.7514,18.66,12.73,47.84626,-54.09684
2020-08-21 05:59:01+00:00,181.5132,18.65,12.73,47.84626,-54.09684
2020-08-21 06:09:01+00:00,176.3232,18.64,12.73,47.84626,-54.09684
2020-08-21 06:19:01+00:00,169.1798,18.6,12.73,47.84626,-54.09684
2020-08-21 06:29:01+00:00,166.2865,18.6,12.73,47.84626,-54.09684
2020-08-21 06:39:01+00:00,165.0381,18.6,12.73,47.84626,-54.09684
2020-08-21 06:49:01+00:00,163.8665,18.6,12.73,47.84626,-54.09684
2020-08-21 06:59:01+00:00,166.8998,18.6,12.73,47.84626,-54.09684
2020-08-21 07:09:01+00:00,172.6065,18.6,12.73,47.84626,-54.09684
2020-08-21 07:19:01+00:00,171.8248,18.61,12.65,47.84626,-54.09684
2020-08-21 07:29:01+00:00,170.9731,18.63,12.65,47.84626,-54.09684
2020-08-21 07:39:01+00:00,178.4098,18.63,12.65,47.84626,-54.09684
2020-08-21 07:49:01+00:00,181.5882,18.61,12.65,47.84626,-54.09684
2020-08-21 07:59:01+00:00,180.5881,18.6,12.65,47.84626,-54.09684
2020-08-21 08:09:01+00:00,186.9098,18.6,12.65,47.84626,-54.09684
2020-08-21 08:19:01+00:00,194.3448,18.6,12.65,47.84626,-54.09684
2020-08-21 08:29:01+00:00,197.1248,18.6,12.65,47.84626,-54.09684
2020-08-21 08:39:01+00:00,201.9198,18.6,12.65,47.84626,-54.09684
2020-08-21 08:49:01+00:00,210.0181,18.6,12.65,47.84626,-54.09684
2020-08-21 08:59:01+00:00,215.2814,18.6,12.65,47.84626,-54.09684
2020-08-21 09:09:01+00:00,218.7981,18.6,12.65,47.84626,-54.09684
2020-08-21 09:19:01+00:00,224.9531,18.6,12.73,47.84626,-54.09684
2020-08-21 09:29:01+00:00,232.5598,18.6,12.73,47.84626,-54.09684
2020-08-21 09:39:01+00:00,238.9931,18.6,12.73,47.84626,-54.09684
2020-08-21 09:49:01+00:00,241.6114,18.6,12.73,47.84626,-54.09684
2020-08-21 09:59:01+00:00,244.1431,18.6,12.73,47.84626,-54.09684
2020-08-21 10:09:01+00:00,250.5481,18.6,12.73,47.84626,-54.09684
2020-08-21 10:19:01+00:00,257.6781,18.6,13.53,47.84626,-54.09684
2020-08-21 10:29:01+00:00,262.2831,18.6,13.53,47.84626,-54.09684
2020-08-21 10:39:01+00:00,269.2331,18.6,13.53,47.84626,-54.09684
2020-08-21 10:49:01+00:00,280.063,18.6,13.53,47.84626,-54.09684
2020-08-21 10:59:01+00:00,290.7847,18.6,13.53,47.84626,-54.09684
2020-08-21 11:09:01+00:00,297.293,18.6,13.53,47.84626,-54.09684
2020-08-21 11:19:01+00:00,305.4814,18.6,14.32,47.84626,-54.09684
2020-08-21 11:29:01+00:00,315.1297,18.6,14.32,47.84626,-54.09684
2020-08-21 11:39:01+00:00,324.2663,18.6,14.32,47.84626,-54.09684
2020-08-21 11:49:01+00:00,330.6563,18.6,14.32,47.84626,-54.09684
2020-08-21 11:59:01+00:00,337.1312,18.54,14.32,47.84626,-54.09684
2020-08-21 12:09:01+00:00,344.5129,18.5,14.32,47.84626,-54.09684
2020-08-21 12:19:01+00:00,347.908,18.5,14.4,47.84626,-54.09684
2020-08-21 12:29:01+00:00,353.5046,18.5,14.4,47.84626,-54.09684
2020-08-21 12:39:01+00:00,358.7979,18.5,14.4,47.84626,-54.09684
2020-08-21 12:49:01+00:00,363.168,18.5,14.4,47.84626,-54.09684
2020-08-21 12:59:01+00:00,366.2263,18.5,14.4,47.84626,-54.09684
2020-08-21 13:09:01+00:00,367.0963,18.5,14.4,47.84626,-54.09684
2020-08-21 13:19:01+00:00,368.2045,18.5,14.4,47.84626,-54.09684
2020-08-21 13:29:01+00:00,370.3729,18.5,14.4,47.84626,-54.09684
2020-08-21 13:39:01+00:00,372.2963,18.4,14.4,47.84626,-54.09684
2020-08-21 13:49:01+00:00,369.8429,18.4,14.4,47.84626,-54.09684
2020-08-21 13:59:01+00:00,364.7247,18.4,14.4,47.84626,-54.09684
2020-08-21 14:09:01+00:00,365.2679,17.8,14.4,47.84626,-54.09684
2020-08-21 14:19:01+00:00,365.1429,17.7,14.32,47.84626,-54.09684
2020-08-21 14:29:01+00:00,358.3514,18.16,14.32,47.84626,-54.09684
2020-08-21 14:39:01+00:00,353.63300000000015,18.05,14.32,47.84626,-54.09684
2020-08-21 14:49:01+00:00,350.81300000000016,17.6,14.32,47.84626,-54.09684
2020-08-21 14:59:01+00:00,344.4379,17.58,14.32,47.84626,-54.09684
2020-08-21 15:09:01+00:00,335.6431,17.74,14.32,47.84626,-54.09684
2020-08-21 15:19:01+00:00,328.8796,17.8,14.24,47.84626,-54.09684
2020-08-21 15:29:01+00:00,322.1346,17.7,14.24,47.84626,-54.09684
2020-08-21 15:39:01+00:00,311.5496,17.92,14.24,47.84626,-54.09684
2020-08-21 15:49:01+00:00,304.5046,18.18,14.24,47.84626,-54.09684
2020-08-21 15:59:01+00:00,299.0413,18.27,14.24,47.84626,-54.09684
2020-08-21 16:09:01+00:00,289.1013,18.3,14.24,47.84626,-54.09684
2020-08-21 16:19:01+00:00,275.433,18.4,14.0,47.84626,-54.09684
2020-08-21 16:29:01+00:00,266.0598,18.5,14.0,47.84626,-54.09684
2020-08-21 16:39:01+00:00,258.9681,18.54,14.0,47.84626,-54.09684
2020-08-21 16:49:01+00:00,248.7731,18.6,14.0,47.84626,-54.09684
2020-08-21 16:59:01+00:00,238.6547,18.63,14.0,47.84626,-54.09684
2020-08-21 17:09:01+00:00,229.8081,18.69,14.0,47.84626,-54.09684
2020-08-21 17:19:01+00:00,219.4481,18.7,14.0,47.84626,-54.09684
2020-08-21 17:29:01+00:00,212.6281,18.7,14.0,47.84626,-54.09684
2020-08-21 17:39:01+00:00,207.9565,18.7,14.0,47.84626,-54.09684
2020-08-21 17:49:01+00:00,199.8765,18.68,14.0,47.84626,-54.09684
2020-08-21 17:59:01+00:00,191.0698,18.61,14.0,47.84626,-54.09684
2020-08-21 18:09:01+00:00,185.1465,18.6,14.0,47.84626,-54.09684
2020-08-21 18:19:01+00:00,180.2531,18.6,13.92,47.84626,-54.09684
2020-08-21 18:29:01+00:00,174.0382,18.6,13.92,47.84626,-54.09684
2020-08-21 18:39:01+00:00,170.0431,18.6,13.92,47.84626,-54.09684
2020-08-21 18:49:01+00:00,169.9348,18.6,13.92,47.84626,-54.09684
2020-08-21 18:59:01+00:00,170.1282,18.6,13.92,47.84626,-54.09684
2020-08-21 19:09:01+00:00,168.6798,18.6,13.92,47.84626,-54.09684
2020-08-21 19:19:01+00:00,170.4998,18.69,13.84,47.84626,-54.09684
2020-08-21 19:29:01+00:00,174.2948,18.7,13.84,47.84626,-54.09684
2020-08-21 19:39:01+00:00,172.9632,18.72,13.84,47.84626,-54.09684
2020-08-21 19:49:01+00:00,173.1531,18.76,13.84,47.84626,-54.09684
2020-08-21 19:59:01+00:00,180.8531,18.7,13.84,47.84626,-54.09684
2020-08-21 20:09:01+00:00,186.5081,18.7,13.84,47.84626,-54.09684
2020-08-21 20:19:01+00:00,187.2131,18.6,13.68,47.84626,-54.09684
2020-08-21 20:29:01+00:00,191.7365,18.6,13.68,47.84626,-54.09684
2020-08-21 20:39:01+00:00,199.2914,18.56,13.68,47.84626,-54.09684
2020-08-21 20:49:01+00:00,202.8364,18.5,13.68,47.84626,-54.09684
2020-08-21 20:59:01+00:00,208.8298,18.5,13.68,47.84626,-54.09684
2020-08-21 21:09:01+00:00,215.0565,18.49,13.68,47.84626,-54.09684
2020-08-21 21:19:01+00:00,215.2548,18.5,13.6,47.84626,-54.09684
2020-08-21 21:29:01+00:00,218.9564,18.57,13.6,47.84626,-54.09684
2020-08-21 21:39:01+00:00,226.5648,18.5,13.6,47.84626,-54.09684
2020-08-21 21:49:01+00:00,230.5414,18.4,13.6,47.84626,-54.09684
2020-08-21 21:59:01+00:00,234.8898,18.4,13.6,47.84626,-54.09684
2020-08-21 22:09:01+00:00,241.7497,18.42,13.6,47.84626,-54.09684
2020-08-21 22:19:01+00:00,249.7981,18.5,13.21,47.84626,-54.09684
2020-08-21 22:29:01+00:00,253.6164,18.56,13.21,47.84626,-54.09684
2020-08-21 22:39:01+00:00,260.2997,18.6,13.21,47.84626,-54.09684
2020-08-21 22:49:01+00:00,269.6081,18.6,13.21,47.84626,-54.09684
2020-08-21 22:59:01+00:00,277.4197,18.6,13.21,47.84626,-54.09684
2020-08-21 23:09:01+00:00,282.7647,18.6,13.21,47.84626,-54.09684
2020-08-21 23:19:01+00:00,293.153,18.6,12.89,47.84626,-54.09684
2020-08-21 23:29:01+00:00,304.8564,18.62,12.89,47.84626,-54.09684
2020-08-21 23:39:01+00:00,314.0147,18.6,12.89,47.84626,-54.09684
2020-08-21 23:49:01+00:00,321.7864,18.61,12.89,47.84626,-54.09684
2020-08-21 23:59:01+00:00,334.8613,18.63,12.89,47.84626,-54.09684
